Content
SEND FEEDBACK

Daily
Averages
Monthly
Summary
United States of America

DORSET, VERMONT


Home > North America > United States > Vermont
Elevation: 300 meters     Latitude: 43 15N     Longitude: 073 06W

WEATHER
 
SELECT A DAY
Number of Records: 455,259;   Date Range: 1/1/95 - 9/18/14
 
SHARE

PRINT THIS DATA

[ ← Previous Day ]
WEATHER ALMANAC - 25 APRIL, 2014
[ Next Day → ]
[ °F ]   °C
Weather ElementAverageHighLow
Temperature7.3 °C15 °C (4:15 pm)-3 °C (5:35 am)
Dewpoint-5.4 °C-1 °C (9:35 pm)-9 °C (12:15 pm)
Humidity45.8 %80 % (1:55 am)20 % (4:35 pm)
Barometer1012.9 hPa1017.6 hPa (8:35 am)1007.1 hPa (11:35 pm)
Wind Speed6.4 km/h18.5 km/h (11:35 pm)
Weather ElementAverage
Visibility15.9 km
Wind DirectionSSE (143.5 °)

Weather ElementTotal
Precipitation---
Heating Degree Days12.3 (Base 18.3)
Averaged from 71 records on 25 April, 2014
WEATHER CONDITIONS BREAKOUT
WIND DIRECTION BREAKOUT
WEATHER BY HOUR - 25 APRIL, 2014
[ °F ]   °C
Local TimeTemperatureDewpointHumidityBarometerVisibilityWind DirectionWind SpeedGust SpeedPrecipitationEventsConditions
12:35 AM1 °C-4 °C70 %1015.6 hPa16.1 kmSE (130°)7.4 km/hClear
12:55 AM1 °C-4 °C70 %1015.6 hPa16.1 kmESE (110°)7.4 km/hClear
1:15 AM1 °C-4 °C70 %1015.2 hPa16.1 kmSE (140°)7.4 km/hClear
1:35 AM0 °C-4 °C75 %1015.2 hPa16.1 kmCalmClear
1:55 AM-1 °C-4 °C80 %1015.2 hPa16.1 kmSSE (150°)5.6 km/hClear
2:15 AM1 °C-6 °C60 %1015.2 hPa16.1 kmSE (130°)5.6 km/hClear
2:35 AM-1 °C-6 °C69 %1015.2 hPa16.1 kmSSE (150°)9.3 km/hClear
2:55 AM-1 °C-5 °C75 %1015.2 hPa16.1 kmSE (130°)7.4 km/hClear
3:15 AM-1 °C-5 °C75 %1015.2 hPa16.1 kmCalmClear
3:35 AM-2 °C-5 °C80 %1015.2 hPa16.1 kmESE (120°)7.4 km/hClear
3:55 AM-2 °C-5 °C80 %1015.6 hPa16.1 kmCalmClear
4:15 AM-2 °C-5 °C80 %1015.6 hPa16.1 kmSE (140°)11.1 km/hClear
4:35 AM-2 °C-5 °C80 %1015.6 hPa16.1 kmCalmClear
4:55 AM-2 °C-6 °C74 %1015.6 hPa16.1 kmSE (130°)5.6 km/hClear
5:15 AM-2 °C-5 °C80 %1015.9 hPa16.1 kmESE (120°)5.6 km/hClear
5:35 AM-3 °C-6 °C80 %1015.9 hPa16.1 kmESE (120°)7.4 km/hClear
5:55 AM-3 °C-6 °C80 %1016.3 hPa16.1 kmCalmClear
6:15 AM-3 °C-6 °C80 %1016.3 hPa16.1 kmCalmClear
6:35 AM-2 °C-5 °C80 %1016.6 hPa16.1 kmSE (130°)9.3 km/hClear
6:55 AM-1 °C-4 °C80 %1016.6 hPa16.1 kmESE (120°)7.4 km/hClear
7:15 AM-1 °C-4 °C80 %1016.9 hPa16.1 kmSE (140°)9.3 km/hClear
7:35 AM1 °C-4 °C70 %1016.9 hPa16.1 kmSE (140°)7.4 km/hClear
7:55 AM3 °C-6 °C52 %1017.3 hPa16.1 kmCalmClear
8:15 AM3 °C-6 °C52 %1017.3 hPa16.1 kmNW (320°)7.4 km/hClear
8:35 AM4 °C-6 °C49 %1017.6 hPa16.1 kmNorth (360°)5.6 km/hClear
8:55 AM4 °C-4 °C56 %1017.6 hPa16.1 kmNNE (30°)5.6 km/hClear
9:15 AM6 °C-5 °C46 %1017.3 hPa16.1 kmNorth (10°)13 km/hClear
9:35 AM6 °C-6 °C42 %1017.3 hPa16.1 kmNorth (350°)9.3 km/hClear
9:55 AM6 °C-5 °C46 %1017.3 hPa16.1 kmNorth (350°)11.1 km/hClear
10:15 AM7 °C-4 °C46 %1016.6 hPa16.1 kmNE (40°)7.4 km/hClear
10:35 AM8 °C-8 °C32 %1016.3 hPa16.1 kmNNE (30°)11.1 km/hClear
10:55 AM8 °C-7 °C34 %1015.9 hPa16.1 kmNW (310°)11.1 km/hClear
11:15 AM9 °C-8 °C30 %1015.6 hPa16.1 kmNNE (20°)11.1 km/hClear
11:35 AM9 °C-8 °C30 %1015.2 hPa16.1 kmNNW (340°)13 km/hClear
11:55 AM10 °C-8 °C28 %1014.9 hPa16.1 kmNorth (350°)13 km/hClear
12:15 PM11 °C-9 °C24 %1014.6 hPa16.1 kmNNW (340°)13 km/hClear
12:35 PM11 °C-8 °C26 %1014.2 hPa16.1 kmNE (40°)11.1 km/hClear
12:55 PM12 °C-7 °C26 %1013.9 hPa16.1 kmNNW (330°)9.3 km/hClear
1:15 PM12 °C-7 °C26 %1013.5 hPa16.1 kmNNW (340°)7.4 km/hClear
1:35 PM12 °C-8 °C24 %1013.2 hPa16.1 kmNNW (330°)11.1 km/hClear
1:55 PM13 °C-8 °C23 %1012.9 hPa16.1 kmNNE (30°)9.3 km/hClear
2:15 PM13 °C-8 °C23 %1012.5 hPa16.1 kmNorth (350°)5.6 km/hClear
2:35 PM13 °C-9 °C21 %1012.2 hPa16.1 kmSSE (150°)5.6 km/hClear
2:55 PM13 °C-8 °C23 %1011.9 hPa16.1 kmCalmClear
3:15 PM14 °C-8 °C21 %1011.5 hPa9.7 kmNE (40°)11.1 km/hClear
3:35 PM14 °C-8 °C21 %1011.2 hPa16.1 kmWSW (250°)5.6 km/hClear
3:55 PM14 °C-7 °C23 %1010.8 hPa16.1 kmWNW (290°)5.6 km/hClear
4:15 PM15 °C-7 °C22 %1010.5 hPa16.1 kmWSW (250°)5.6 km/hClear
4:35 PM15 °C-8 °C20 %1009.8 hPa16.1 kmCalmClear
4:55 PM15 °C-7 °C22 %1009.8 hPa16.1 kmNE (40°)9.3 km/hClear
5:15 PM15 °C-7 °C22 %1009.5 hPa16.1 kmNNE (20°)7.4 km/hClear
5:35 PM15 °C-7 °C22 %1009.1 hPa16.1 kmNNW (330°)9.3 km/hClear
5:55 PM15 °C-7 °C22 %1008.8 hPa16.1 kmNorth (350°)9.3 km/hClear
6:15 PM14 °C-6 °C25 %1008.5 hPa16.1 kmNorth (360°)5.6 km/hClear
6:35 PM14 °C-7 °C23 %1008.1 hPa16.1 kmNW (320°)5.6 km/hClear
6:55 PM14 °C-6 °C25 %1007.8 hPa16.1 kmNW (320°)5.6 km/hClear
7:15 PM14 °C-6 °C25 %1008.1 hPa16.1 kmNW (310°)5.6 km/hClear
7:35 PM13 °C-5 °C29 %1008.1 hPa16.1 kmNorth (10°)5.6 km/hPartly Cloudy
7:55 PM13 °C-3 °C33 %1008.1 hPa16.1 kmNorth (10°)7.4 km/hMostly Cloudy
8:15 PM12 °C-3 °C35 %1007.8 hPa16.1 kmNNE (20°)5.6 km/hMostly Cloudy
8:35 PM12 °C-2 °C38 %1008.1 hPa16.1 kmCalmScattered Clouds
8:55 PM12 °C-3 °C35 %1008.1 hPa16.1 kmCalmScattered Clouds
9:15 PM11 °C-3 °C38 %1008.5 hPa16.1 kmCalmOvercast
9:35 PM11 °C-1 °C44 %1008.5 hPa16.1 kmCalmOvercast
9:55 PM11 °C-2 °C41 %1008.5 hPa16.1 kmCalmOvercast
10:15 PM10 °C-2 °C43 %1008.5 hPa16.1 kmCalmOvercast
10:35 PM11 °C-2 °C41 %1007.8 hPa16.1 kmWNW (290°)7.4 km/hOvercast
10:55 PM10 °C-2 °C43 %1007.8 hPa16.1 kmCalmOvercast
11:15 PM11 °C-2 °C41 %1007.5 hPa16.1 kmSE (130°)11.1 km/hOvercast
11:35 PM12 °C-3 °C35 %1007.1 hPa16.1 kmESE (120°)18.5 km/hMostly Cloudy
11:55 PM12 °C-3 °C35 %1007.1 hPa16.1 kmSSW (210°)5.6 km/hOvercast
Hourly data recorded from KRUT, located 0 kilometers away from Dorset, Vermont







STORIES FROM OUR PARTNERS